GFSFLT2_con_mlcape_051.txt.gz
CAPE
177 77 96 156 140 220 183 142 123 137 180 98 39 16 1 0 0 0 0 0 0 0 0 0 0 0 0 0 0 0 0 0
1 7 3 0 121 230 329 171 151 137 98 36 13 1 0 0 0 0 0 0 0 0 0 0 0 0 0 0 0 0 0 0
0 0 0 11 86 248 324 259 118 61 26 2 0 3 0 0 0 0 0 0 0 0 0 0 0 0 0 0 0 0 0 0
6 26 22 31 30 187 232 225 111 24 13 2 0 1 0 0 0 0 0 0 0 0 0 0 0 0 0 0 0 0 0 0
1 1 0 0 1 20 78 162 49 5 0 0 1 0 0 0 0 0 0 0 0 0 0 0 0 0 0 0 0 0 0 0
13 0 0 8 46 60 125 58 9 7 12 3 0 0 0 0 0 0 0 0 0 0 0 0 0 0 0 0 0 0 0 0
0 0 0 0 0 56 37 14 12 10 0 0 0 0 0 0 0 0 0 0 0 0 0 0 0 0 0 0 0 0 0 0
0 0 0 14 106 27 36 5 0 0 2 30 0 0 0 0 0 0 0 0 0 0 0 0 0 0 0 0 0 0 0 0
0 0 0 0 132 14 4 0 0 0 0 8 29 0 0 0 0 0 0 0 0 0 0 0 0 0 0 0 0 0 0 0
0 1 9 15 105 7 0 0 0 0 0 1 18 21 0 0 0 0 0 0 0 0 0 0 0 0 0 0 0 0 0 0
0 71 155 79 71 2 0 0 0 0 4 14 13 0 0 0 0 0 0 0 0 0 0 0 0 0 0 0 0 0 0 0
55 181 204 73 27 0 0 0 0 5 0 0 0 0 0 0 0 0 0 0 0 0 0 0 0 0 0 0 0 0 0 0
38 186 212 136 43 0 0 0 0 2 1 0 0 0 0 0 0 0 0 0 0 0 0 0 0 0 0 0 0 0 0 0
30 131 189 160 79 3 0 0 0 9 1 0 0 0 0 0 0 0 0 0 0 0 0 0 0 0 0 0 0 0 0 0
19 73 170 176 77 3 0 0 0 2 0 0 0 0 0 0 0 0 0 0 0 0 0 0 0 0 0 0 0 0 0 0
22 57 103 133 59 7 0 0 20 3 2 0 0 0 0 0 0 0 0 0 0 0 0 0 0 0 0 0 0 0 0 0
133 74 86 129 47 25 0 3 11 0 0 0 0 0 0 0 0 0 0 0 0 0 0 0 0 0 0 0 0 0 0 0
264 176 94 112 55 50 22 0 0 0 0 0 0 0 0 0 0 0 0 0 0 0 0 0 0 0 0 0 0 0 0 0
287 255 224 124 26 17 7 5 0 0 0 0 0 0 0 0 0 0 0 0 0 0 0 0 0 0 0 0 0 0 0 0
315 324 336 180 107 49 6 1 0 0 0 0 0 0 0 0 0 0 0 0 0 0 0 0 0 0 0 0 0 0 0 0

GFSFLT2_con_mlcape_054.txt.gz
CAPE
4 0 68 65 71 78 92 181 146 136 129 92 61 36 22 8 0 0 0 0 0 0 0 0 0 0 0 0 0 0 0 0
10 26 49 69 125 165 75 254 235 173 128 85 58 43 18 0 0 0 0 0 0 0 0 0 0 0 0 0 0 0 0 0
1 0 0 0 2 113 199 169 225 134 63 25 13 14 3 0 0 0 0 0 0 0 0 0 0 0 0 0 0 0 0 0
0 0 0 7 58 12 189 172 162 91 50 9 8 16 1 7 0 0 0 0 0 0 0 0 0 0 0 0 0 0 0 0
5 0 25 30 23 1 12 127 144 84 48 24 20 11 8 2 0 0 0 0 0 0 0 0 0 0 0 0 0 0 0 0
0 9 1 0 41 0 0 63 157 70 61 59 32 12 0 0 0 0 0 0 0 0 0 0 0 0 0 0 0 0 0 0
2 14 11 39 37 6 26 118 69 36 56 48 36 12 0 0 0 0 0 0 0 0 0 0 0 0 0 0 0 0 0 0
0 4 2 5 9 22 72 146 82 93 36 44 29 2 8 1 0 0 0 0 0 0 0 0 0 0 0 0 0 0 0 0
0 0 35 38 27 86 105 50 18 9 57 198 59 15 10 0 0 0 0 0 0 0 0 0 0 0 0 0 0 0 0 0
5 0 24 55 134 127 62 23 14 11 153 294 226 100 6 3 0 0 0 0 0 0 0 0 0 0 0 0 0 0 0 0
0 0 1 34 211 236 11 48 4 5 135 222 231 353 191 11 0 0 0 0 0 0 0 0 0 0 0 0 0 0 0 0
0 0 24 155 240 299 82 3 25 98 324 315 249 309 328 95 18 0 0 0 0 0 0 0 0 0 0 0 0 0 0 0
35 57 110 330 257 145 48 0 31 117 308 345 159 169 144 104 7 0 0 0 0 0 0 0 0 0 0 0 0 0 0 0
66 88 228 379 280 154 28 0 21 101 218 76 55 21 0 0 0 0 0 0 0 0 0 0 0 0 0 0 0 0 0 0
229 317 428 564 400 285 69 58 77 114 115 62 5 1 0 0 0 0 0 0 0 0 0 0 0 0 0 0 0 0 0 0
110 164 275 549 547 283 65 12 14 57 89 19 1 0 0 0 0 0 0 0 0 0 0 0 0 0 0 0 0 0 0 0
236 250 287 435 579 554 264 48 15 182 284 62 1 0 0 0 0 0 0 0 0 0 0 0 0 0 0 0 0 0 0 0
672 450 349 429 507 567 597 390 272 390 194 66 12 1 0 0 0 0 0 0 0 0 0 0 0 0 0 0 0 0 0 0
1118 867 627 546 596 655 714 696 507 421 261 69 3 1 0 0 0 0 0 0 0 0 0 0 0 0 0 0 0 0 0 0
1188 1007 930 753 749 759 755 661 558 407 168 45 7 0 0 0 0 0 0 0 0 0 0 0 0 0 0 0 0 0 0 0

GFSFLT2_con_mlcape_057.txt.gz
CAPE
53 49 79 90 68 40 68 153 172 168 120 108 89 75 127 172 155 84 9 0 0 0 0 0 0 0 0 0 0 0 0 0
16 4 70 50 74 65 113 158 183 148 108 70 76 58 58 40 15 15 15 4 0 0 0 0 0 0 0 0 0 0 0 0
6 10 1 7 39 64 73 220 270 136 81 50 35 25 8 15 15 5 6 0 0 0 0 0 0 0 0 0 0 0 0 0
1 5 10 25 10 39 60 134 205 101 64 76 45 43 50 50 27 0 0 0 0 0 0 0 0 0 0 0 0 0 0 0
0 0 0 0 0 0 0 46 159 62 86 93 127 141 86 48 6 0 0 0 0 0 0 0 0 0 0 0 0 0 0 0
0 0 6 3 6 2 31 121 143 111 142 135 162 120 113 47 0 0 0 0 0 0 0 0 0 0 0 0 0 0 0 0
0 3 9 1 0 0 0 46 29 18 64 146 119 84 121 59 31 0 0 0 0 0 0 0 0 0 0 0 0 0 0 0
1 0 0 2 3 20 26 68 72 76 112 160 157 171 115 82 47 1 0 0 0 0 0 0 0 0 0 0 0 0 0 0
0 0 1 4 18 12 16 130 152 122 93 189 155 156 182 54 28 14 0 0 0 0 0 0 0 0 0 0 0 0 0 0
1 0 0 5 1 8 60 141 70 4 41 138 191 123 111 66 45 9 0 0 0 0 0 0 0 0 0 0 0 0 0 0
0 0 13 9 28 30 90 113 74 23 24 255 437 224 117 99 41 38 14 0 0 0 0 0 0 0 0 0 0 0 0 0
0 2 1 24 48 102 32 34 63 4 11 212 401 478 562 201 98 92 31 0 0 0 0 0 0 0 0 0 0 0 0 0
0 0 20 35 33 24 13 0 0 0 45 297 577 420 475 498 408 200 21 0 0 0 0 0 0 0 0 0 0 0 0 0
0 0 3 13 9 3 4 0 0 17 80 250 477 412 385 402 355 189 15 0 0 0 0 0 0 0 0 0 0 1 0 0
0 33 54 73 103 75 50 19 4 8 73 205 339 185 41 43 55 54 1 0 0 0 0 0 0 0 0 0 0 0 0 0
122 141 167 237 310 234 153 41 5 5 91 171 250 28 2 2 2 1 17 2 0 0 0 0 0 1 0 0 0 0 0 0
256 326 388 428 494 350 307 176 54 43 106 188 223 37 2 0 0 0 10 0 0 0 0 0 0 0 0 0 0 0 0 0
379 351 342 344 421 574 483 384 233 53 73 545 264 97 6 5 4 0 0 0 0 0 0 0 0 0 0 0 0 0 0 0
622 525 496 458 480 569 652 667 653 513 386 661 378 199 48 2 2 0 0 0 0 1 0 0 0 0 0 0 0 0 0 0
1056 988 930 706 663 761 879 958 897 997 756 720 621 385 114 0 0 0 0 0 0 0 0 0 0 0 0 0 0 0 0 0

GFSFLT2_con_mlcape_060.txt.gz
CAPE
0 4 29 54 79 118 192 204 223 216 222 419 549 570 452 224 102 14 0 0 0 0 0 0 0 0 0 0 0 0 0 0
5 0 4 1 0 30 79 185 211 142 105 194 284 285 242 152 51 11 0 0 0 0 0 0 0 0 0 0 0 0 0 0
23 2 4 0 0 4 66 145 199 173 105 97 134 135 81 47 61 13 0 0 0 0 0 0 0 0 0 0 0 0 0 0
7 5 1 6 0 0 0 10 78 162 63 15 2 28 22 43 30 12 0 0 0 0 0 0 0 0 0 0 0 0 0 0
0 2 0 0 6 19 30 35 45 84 139 108 50 52 21 27 0 0 0 0 0 0 0 0 0 0 0 0 0 0 0 0
2 1 1 1 2 0 1 10 95 119 168 189 202 139 56 4 3 0 0 0 0 0 0 0 0 0 0 0 0 0 0 0
3 0 0 0 0 0 0 16 100 132 138 165 205 161 73 19 10 0 0 0 0 0 0 0 0 0 0 0 0 0 0 0
2 2 0 0 0 0 0 4 18 42 177 158 126 113 200 37 58 10 0 0 0 0 0 0 0 0 0 0 0 0 0 0
3 1 0 3 0 0 0 0 17 67 172 198 174 150 158 131 116 79 9 0 0 0 0 0 0 0 0 0 0 0 0 0
0 0 0 0 0 0 0 18 18 52 173 118 96 183 146 140 58 40 12 0 0 0 0 0 0 0 0 0 0 0 0 0
4 2 1 0 0 0 0 20 47 65 42 159 157 137 167 83 130 60 34 0 0 0 0 0 0 0 0 0 0 0 0 0
0 0 0 0 0 0 14 45 70 50 26 146 288 256 81 146 118 85 53 0 0 0 0 0 0 0 0 0 0 0 0 0
0 0 0 0 0 0 0 38 64 37 30 47 239 275 350 245 144 121 94 23 0 0 0 0 0 0 0 0 0 0 0 0
0 0 0 0 1 1 21 0 7 30 4 29 285 442 380 301 241 248 163 5 0 0 0 0 0 0 0 0 0 0 0 0
0 0 0 0 40 18 6 0 0 0 12 27 252 331 346 345 418 302 109 34 0 0 0 0 0 0 0 0 0 0 0 0
0 0 0 0 7 15 0 8 3 0 12 54 243 316 208 96 64 59 44 1 0 0 0 0 0 0 0 0 0 0 0 0
0 0 0 32 30 116 90 66 15 3 5 76 284 206 84 11 4 0 0 1 0 0 0 0 0 0 0 0 0 0 0 0
99 119 143 169 120 137 363 357 183 49 57 67 250 185 71 5 1 0 3 3 0 0 0 0 0 0 0 0 0 0 0 0
291 252 304 302 422 595 559 332 611 163 173 291 191 221 126 66 1 0 0 0 0 0 0 0 0 0 0 0 0 0 0 0
379 389 359 423 454 513 690 692 515 596 364 389 300 305 157 52 14 0 0 0 0 0 0 0 0 0 0 0 0 0 0 0

GFSFLT2_con_mlcape_063.txt.gz
CAPE
7 0 0 1 14 104 163 309 315 523 479 602 647 489 124 34 3 0 0 0 0 0 0 0 0 0 0 0 0 0 0 0
1 0 0 0 20 0 33 70 226 349 453 475 424 229 103 15 0 0 0 0 0 0 0 0 0 0 0 0 0 0 0 0
3 2 2 1 1 0 0 136 186 209 173 153 136 89 29 0 0 0 0 0 0 0 0 0 0 0 0 0 0 0 0 0
5 2 1 0 1 0 0 13 41 83 46 69 22 57 28 3 2 0 0 0 0 0 0 0 0 0 0 0 0 0 0 0
1 3 2 1 2 0 0 0 0 15 26 29 45 54 20 7 0 0 0 0 0 0 0 0 0 0 0 0 0 0 0 0
2 2 0 0 0 0 0 0 22 36 25 25 20 19 1 0 0 0 0 0 0 0 0 0 0 0 0 0 0 0 0 0
1 0 0 0 0 0 0 0 37 43 54 60 32 3 0 0 0 0 0 0 0 0 0 0 0 0 0 0 0 0 0 0
1 2 0 0 0 0 0 0 4 30 31 83 108 53 2 0 0 0 0 0 0 0 0 0 0 0 0 0 0 0 0 0
2 2 0 0 0 0 0 2 1 2 27 85 152 146 32 15 13 10 0 0 0 0 0 0 0 0 0 0 0 0 0 0
1 1 0 0 0 0 0 0 0 0 29 109 115 115 136 71 81 36 6 0 0 0 0 0 0 0 0 0 0 0 0 0
1 0 0 0 0 0 0 0 0 0 48 87 55 95 137 41 36 11 0 0 0 0 0 0 0 0 0 0 0 0 0 0
0 0 0 0 0 0 0 0 3 13 0 25 12 3 106 53 36 60 0 0 0 0 0 0 0 0 0 0 0 0 0 0
0 0 0 0 0 0 0 0 0 0 0 0 27 56 64 65 83 67 15 0 0 0 0 0 0 0 0 0 0 0 0 0
0 0 0 0 0 0 0 0 0 0 0 0 53 123 142 100 54 74 63 17 0 0 0 0 0 0 0 0 0 0 0 0
0 0 0 0 0 0 0 0 0 2 0 0 2 55 97 183 206 90 57 37 1 0 0 0 0 0 0 0 0 0 0 0
0 0 0 0 0 0 0 0 0 0 0 0 2 152 200 223 205 175 60 56 17 0 0 0 0 0 0 0 0 0 0 0
0 0 0 0 0 0 0 0 0 0 0 0 2 52 105 127 148 115 84 37 1 0 0 0 0 0 0 0 0 0 0 0
0 0 0 0 0 0 0 0 0 0 0 0 0 60 99 110 98 55 21 2 1 0 0 0 0 0 0 0 0 0 0 0
0 0 0 0 0 0 0 6 0 0 0 0 29 94 113 66 32 9 1 0 0 0 0 0 0 0 0 0 0 0 0 0
0 0 0 0 0 0 0 12 88 37 3 0 8 40 61 59 27 3 0 0 0 0 0 0 0 0 0 0 0 0 0 0

GFSFLT2_con_mlcape_069.txt.gz
CAPE
0 0 0 0 0 0 188 1 12 525 276 232 167 60 0 0 0 0 0 0 0 0 0 0 0 0 0 0 0 0 0 0
2 2 0 0 0 0 18 2 423 395 274 187 87 6 0 0 0 0 0 0 0 0 0 0 0 0 0 0 0 0 0 0
1 1 0 0 0 0 0 1 398 332 245 133 46 0 0 0 0 0 0 0 0 0 0 0 0 0 0 0 0 0 0 0
1 1 0 0 4 0 0 0 53 165 146 82 13 0 0 0 0 0 0 0 0 0 0 0 0 0 0 0 0 0 0 0
2 2 1 3 1 4 3 1 1 61 90 50 8 0 0 0 0 0 0 0 0 0 0 0 0 0 0 0 0 0 0 0
1 2 3 2 1 0 3 35 38 47 54 27 0 0 0 0 0 0 0 0 0 0 0 0 0 0 0 0 0 0 0 0
1 1 1 0 3 0 0 0 7 5 30 35 1 0 0 0 0 0 0 0 0 0 0 0 0 0 0 0 0 0 0 0
2 1 1 0 0 0 0 0 0 3 13 0 0 0 0 0 0 0 0 0 0 0 0 0 0 0 0 0 0 0 0 0
1 1 1 0 0 0 0 1 0 4 1 0 0 0 0 0 0 0 0 0 0 0 0 0 0 0 0 0 0 0 0 0
2 3 2 0 0 0 0 0 0 1 5 5 1 0 0 0 0 0 0 0 0 0 0 0 0 0 0 0 0 0 0 0
1 1 2 1 0 0 0 0 15 20 24 7 3 0 0 0 0 0 0 0 0 0 0 0 0 0 0 0 0 0 0 0
1 1 1 0 0 0 0 0 42 52 32 11 2 0 0 0 0 0 0 0 0 0 0 0 0 0 0 0 0 0 0 0
1 0 0 0 0 0 2 7 14 38 66 76 73 50 42 17 41 45 15 4 0 0 0 0 0 0 0 0 0 0 0 0
1 0 0 0 0 0 0 0 0 0 5 26 45 52 68 95 56 55 25 1 0 0 0 0 0 0 0 0 0 0 0 0
0 0 0 0 0 0 0 0 0 0 0 2 5 25 49 32 80 37 26 3 6 0 0 0 0 0 0 0 0 0 0 0
0 0 0 0 0 0 0 0 0 0 0 0 0 0 0 21 36 60 54 18 9 0 0 0 0 0 0 0 0 0 0 0
0 0 0 0 0 0 0 0 0 0 0 0 0 0 0 0 31 21 20 9 22 2 0 0 0 0 0 0 0 0 0 0
0 0 0 0 0 0 0 0 0 0 0 0 0 0 0 0 0 12 24 20 9 2 0 0 0 0 0 0 0 0 0 0
0 0 0 0 0 0 0 0 0 0 0 0 0 0 0 0 0 1 6 29 19 8 0 0 0 0 0 0 0 0 0 0
0 0 0 0 0 0 0 0 0 0 0 0 0 0 0 0 6 1 0 0 2 5 0 0 0 0 0 0 0 0 0 0

GFSFLT2_con_mlcape_075.txt.gz
CAPE
279 307 240 144 104 4 0 104 361 232 292 423 211 155 80 107 8 0 0 0 4 1 0 0 0 0 0 0 0 0 0 3
75 79 67 50 13 0 2 14 246 274 227 239 96 119 113 44 0 0 64 46 0 0 0 0 0 0 0 0 0 0 0 0
9 2 1 0 0 0 0 5 107 181 207 117 37 50 40 8 0 0 82 0 0 0 0 0 0 0 0 0 0 0 0 0
10 6 0 0 0 0 0 0 171 140 107 70 11 9 8 0 0 0 57 0 0 0 0 0 0 0 0 0 0 0 0 0
39 2 0 0 0 0 0 0 71 27 44 48 0 2 0 0 0 0 18 0 0 0 0 0 0 0 0 0 0 0 0 0
0 0 1 2 0 0 2 0 6 19 32 12 4 0 0 0 0 0 0 1 8 2 0 0 0 0 0 0 0 0 0 0
2 1 1 0 0 0 8 3 2 0 35 0 0 0 0 0 0 0 0 0 0 0 0 0 0 0 0 0 0 0 0 0
6 2 1 0 0 0 2 4 2 0 3 1 0 0 0 0 0 0 0 0 0 0 0 0 0 0 0 0 0 0 0 0
26 6 1 0 0 0 1 9 4 2 4 3 0 0 0 0 0 0 0 0 0 0 0 0 0 0 0 0 0 0 0 0
6 3 1 1 2 5 4 5 17 0 12 0 0 0 0 0 0 0 0 0 0 0 0 0 0 0 0 0 0 0 0 0
1 1 1 2 2 8 1 0 0 0 4 0 0 0 0 0 0 0 0 0 0 0 0 0 0 0 0 0 0 0 0 0
2 2 2 1 1 1 0 2 12 11 13 0 0 0 0 0 0 0 0 0 0 0 0 0 0 0 0 0 0 0 0 0
2 1 1 1 1 3 0 0 1 3 10 0 0 0 0 0 0 0 0 5 0 0 0 0 0 0 0 0 0 0 0 0
2 1 1 2 0 5 1 0 0 14 8 5 2 0 0 0 0 0 0 6 1 0 0 0 0 0 0 0 0 0 0 0
2 0 1 1 0 0 0 0 1 1 1 7 1 0 0 0 0 0 0 0 7 4 1 2 0 0 0 0 0 0 0 0
3 2 1 1 0 0 0 1 0 1 0 0 0 0 0 0 0 0 3 33 57 53 22 16 0 0 0 0 0 0 0 0
1 1 1 1 2 0 0 1 0 0 0 0 1 0 0 1 10 31 45 50 100 84 44 14 0 0 0 0 0 0 0 0
1 2 2 0 0 0 0 0 0 0 0 0 0 0 1 23 38 60 113 121 134 141 97 36 16 0 4 1 0 0 0 0
0 2 2 1 0 0 0 0 0 0 0 0 0 0 2 12 7 6 10 21 61 78 99 42 29 12 30 8 0 0 0 0
0 0 1 1 0 0 0 0 0 0 0 0 0 0 0 0 0 1 2 0 0 14 27 44 36 4 2 2 1 0 0 0

GFSFLT2_con_mlcape_078.txt.gz
CAPE
1054 1135 627 314 133 244 465 592 679 510 372 364 531 603 528 271 254 200 97 66 0 0 0 0 0 0 0 0 0 0 0 0
492 785 483 291 152 0 96 328 232 150 108 112 230 317 311 210 159 195 129 80 0 0 0 0 0 0 0 0 0 0 0 0
49 53 204 213 106 50 2 26 177 99 82 38 167 231 164 145 106 128 73 0 0 0 0 0 0 0 0 0 0 0 0 0
5 16 46 43 15 39 105 101 143 166 128 112 118 114 109 152 160 130 47 0 0 0 0 0 0 0 0 0 0 0 2 1
3 2 25 5 1 0 0 66 100 98 109 3 83 82 137 147 183 127 8 0 0 0 0 0 0 0 0 0 0 0 1 1
28 1 5 2 0 0 4 29 48 106 26 0 8 42 93 138 149 59 1 0 0 0 0 0 0 0 0 0 0 0 0 1
114 44 11 19 15 11 3 0 6 2 2 0 5 33 25 47 100 116 31 8 0 0 0 0 0 0 0 0 0 0 0 2
41 6 4 6 8 14 3 1 3 1 0 1 10 22 22 4 4 25 71 81 26 1 0 0 0 0 0 0 0 0 0 2
4 19 7 2 6 3 4 4 2 1 0 0 7 14 4 0 0 0 3 28 5 0 0 0 0 0 0 0 0 0 0 1
6 22 3 5 6 6 4 2 2 1 0 0 0 5 0 0 0 0 0 0 0 0 0 0 0 0 0 0 0 0 0 0
14 6 1 1 2 3 4 4 1 2 0 0 0 0 0 0 0 0 0 0 0 0 0 0 0 0 0 0 0 0 0 0
28 2 1 2 2 7 3 3 1 0 0 0 0 0 0 0 0 0 0 0 0 0 0 0 0 0 0 0 0 0 0 0
9 0 2 2 2 5 2 4 4 0 0 0 0 0 0 7 9 0 0 0 0 0 0 0 0 0 0 0 0 0 0 0
4 2 2 3 11 12 4 3 15 0 0 0 0 0 0 0 0 4 5 11 0 0 0 0 1 0 0 0 1 0 0 0
3 3 2 4 7 19 8 2 19 5 0 0 0 0 0 0 1 6 1 8 6 1 0 0 12 0 0 14 3 9 0 0
3 3 3 2 1 5 6 3 1 1 0 0 0 0 0 1 0 1 0 22 31 60 31 37 70 61 0 0 14 7 7 63
5 6 4 3 1 4 5 5 3 2 0 0 0 0 7 0 2 1 18 85 81 129 99 73 105 127 100 66 2 0 0 0
4 1 3 10 3 1 2 2 2 2 1 3 0 0 0 0 0 21 24 63 100 195 247 207 188 120 70 52 18 0 31 42
2 2 2 4 5 3 4 1 0 0 0 1 0 0 0 0 0 0 14 44 98 153 120 150 139 110 149 121 82 45 106 94
0 0 1 4 1 8 3 2 0 0 6 4 0 0 0 0 0 0 9 36 78 61 68 86 183 155 139 135 126 139 142 73

GFSFLT2_con_mlcape_081.txt.gz
CAPE
1548 1303 790 249 47 19 93 61 10 257 382 436 424 545 545 309 183 171 115 0 0 0 0 0 0 0 0 0 0 0 0 2
1405 954 614 279 82 23 97 222 169 177 400 280 238 300 338 221 184 161 82 0 0 0 0 0 0 0 0 0 0 0 0 0
351 557 605 232 166 49 57 88 236 152 261 213 121 165 135 194 161 163 77 0 0 0 0 0 0 0 0 0 0 2 1 3
23 206 142 100 155 194 180 233 333 272 165 174 129 115 109 193 207 205 96 0 0 0 0 0 0 0 0 0 1 3 5 0
15 1 87 178 53 113 132 205 287 352 257 74 19 77 114 43 188 166 102 0 0 0 0 0 0 0 0 0 0 7 10 0
2 2 3 66 45 24 113 94 132 146 144 108 88 54 11 111 135 108 82 0 0 0 0 0 0 0 0 0 0 15 12 0
54 12 0 1 5 8 0 80 111 133 77 93 5 6 27 35 47 152 47 0 0 0 0 0 0 0 0 0 1 17 9 0
149 35 11 21 27 45 9 4 14 36 2 2 23 0 29 6 4 69 102 29 1 0 1 0 0 0 0 0 2 13 15 1
13 18 0 9 10 1 2 3 3 1 0 2 1 0 37 32 48 97 202 110 81 22 0 0 0 0 0 0 1 9 6 12
22 12 13 18 7 2 3 2 1 1 2 1 0 0 7 11 56 89 184 155 79 27 3 0 0 0 0 0 1 1 1 10
10 31 17 30 34 2 4 0 2 1 0 0 0 0 0 0 17 71 81 64 28 39 13 0 0 0 0 0 0 0 0 2
3 18 5 12 1 6 1 5 2 0 0 0 0 0 0 10 8 17 29 2 2 8 5 0 0 0 0 0 0 0 0 0
7 5 1 2 1 4 1 2 3 0 0 0 0 2 14 11 15 9 4 0 0 0 0 0 0 0 0 0 0 0 0 0
1 13 4 3 4 6 2 0 2 0 0 0 0 6 16 56 38 49 0 0 0 0 0 1 0 0 0 0 0 0 0 0
3 3 4 6 3 9 3 1 3 0 0 0 0 12 30 57 70 45 12 52 39 43 47 45 77 3 1 37 50 51 45 0
4 2 5 3 4 2 2 2 1 0 0 0 0 3 20 42 50 38 62 111 77 75 101 75 48 33 0 0 51 112 27 0
1 4 2 2 3 1 1 4 1 4 0 0 0 0 0 2 30 48 39 44 120 95 36 48 26 62 71 50 15 60 43 23
0 4 6 2 8 6 4 1 14 4 0 0 0 0 0 11 15 3 8 31 83 112 116 84 78 114 89 82 81 58 33 5
0 1 2 7 5 2 7 10 0 0 0 0 0 0 0 0 2 3 0 4 76 118 102 70 93 88 30 34 18 35 32 40
0 0 2 3 1 5 6 15 6 0 0 0 0 0 0 0 0 0 1 5 22 118 73 73 218 123 110 47 25 97 80 94

GFSFLT2_con_mlcape_084.txt.gz
CAPE
1201 1500 882 372 153 131 66 46 0 0 1 6 716 748 761 557 397 301 291 95 1 0 0 0 0 0 0 0 0 2 0 0
1153 1167 939 429 85 54 5 49 0 2 5 41 315 208 379 314 208 220 113 0 0 0 0 0 0 0 0 0 0 2 0 0
577 757 528 322 232 86 1 30 94 39 2 72 155 184 231 134 260 123 36 0 0 0 0 0 0 0 0 0 0 4 0 0
146 546 423 284 180 12 0 3 70 83 0 84 115 148 107 97 154 100 20 0 0 0 0 0 0 0 0 0 0 14 0 0
5 83 125 31 44 115 106 129 177 255 103 111 88 117 78 69 71 96 36 0 0 0 0 0 0 0 0 0 1 10 0 0
31 3 24 150 16 4 21 37 112 169 143 77 74 17 39 3 28 86 19 0 0 0 0 0 0 0 0 0 8 1 0 0
66 10 1 1 7 0 3 29 25 74 153 56 14 4 6 21 60 52 16 0 0 0 0 0 0 0 0 1 15 0 0 0
144 119 3 0 0 1 4 1 28 77 68 172 38 6 1 17 52 35 5 0 0 0 0 0 0 0 0 0 12 1 0 0
156 65 9 2 13 1 3 2 1 20 23 83 1 6 3 11 12 31 30 13 0 1 0 0 0 0 0 0 8 15 0 0
130 38 2 13 3 1 0 1 0 0 0 37 1 3 3 0 0 0 72 115 45 11 3 0 0 0 0 0 3 20 8 0
52 0 6 13 9 3 1 2 2 2 1 0 1 1 0 0 0 5 36 78 56 24 1 0 0 0 0 1 0 9 12 4
16 0 3 12 16 2 3 2 2 1 1 1 2 0 0 0 0 1 6 30 53 25 9 0 0 0 0 2 6 10 0 1
0 2 3 3 2 2 2 1 1 0 0 0 0 0 0 0 0 1 10 27 19 15 2 0 0 0 0 0 4 11 0 1
0 2 3 3 3 2 1 1 1 0 0 0 1 0 0 0 0 0 9 20 43 26 1 0 0 0 0 0 0 0 0 0
0 3 2 2 3 1 2 1 0 0 0 0 0 0 0 0 0 0 4 1 9 7 0 0 0 0 0 0 1 0 0 0
0 0 2 2 6 0 1 1 0 0 0 0 0 0 0 0 0 0 20 16 23 0 0 0 12 0 0 20 35 58 32 0
0 0 4 3 8 1 1 1 0 0 0 0 0 0 4 5 2 9 10 67 39 32 33 41 70 51 1 10 1 43 40 34
0 0 3 3 4 1 1 0 0 0 0 0 0 0 7 7 27 31 32 51 54 65 72 75 44 56 62 46 33 34 46 31
0 1 1 1 8 3 1 0 0 0 0 0 0 0 0 0 1 17 24 42 77 90 38 34 40 20 39 26 48 92 55 29
0 0 2 1 8 3 9 0 0 0 0 0 0 0 0 0 0 0 2 18 32 39 16 18 19 14 30 23 25 48 39 19

GFSFLT2_con_mlcape_090.txt.gz
CAPE
1013 1012 941 1023 1375 1639 1568 1167 464 153 112 76 16 51 28 144 336 477 434 355 242 221 52 31 4 0 0 0 0 0 0 0
637 598 621 580 636 1145 978 774 425 151 104 33 29 3 0 0 193 340 433 261 110 57 13 13 0 0 0 0 0 0 0 0
640 489 222 211 154 297 366 305 154 42 13 0 0 0 0 32 158 238 276 127 50 0 0 0 0 0 0 0 0 0 0 0
418 430 192 56 11 1 0 0 0 0 0 5 0 0 0 11 133 184 160 37 21 0 0 0 0 0 0 0 0 0 0 0
101 316 281 186 71 0 0 0 0 0 0 27 6 5 27 130 80 69 55 12 0 0 0 0 0 0 0 0 0 0 0 0
0 97 179 127 54 12 0 0 0 0 4 1 25 46 26 31 48 48 25 0 0 0 0 0 0 0 0 0 0 0 0 0
0 53 60 127 87 74 30 9 32 0 1 1 65 65 22 26 30 8 7 0 0 0 0 0 0 0 0 0 0 0 0 0
0 1 4 59 52 63 31 2 37 10 0 0 58 34 29 18 8 3 0 0 0 0 0 0 0 0 0 0 0 0 0 0
0 0 4 20 46 8 0 0 1 37 1 4 8 8 11 10 3 3 0 0 0 0 0 0 0 0 0 0 0 0 0 0
0 0 0 0 0 3 1 0 0 11 24 12 2 2 1 5 3 0 0 0 0 0 0 0 0 0 0 0 0 0 0 0
0 0 0 0 0 1 3 0 0 1 19 30 8 5 2 8 1 0 0 0 0 0 0 0 0 0 0 0 0 0 0 0
9 4 0 0 0 0 0 0 0 0 0 3 24 21 2 2 6 0 0 0 0 0 0 0 0 0 0 0 0 0 0 0
7 0 0 0 0 0 0 0 0 0 0 0 23 4 6 2 1 1 0 0 0 0 0 0 0 0 0 0 0 0 0 0
0 0 0 0 0 0 0 0 1 0 0 0 4 11 4 16 1 0 0 0 0 10 2 0 3 4 1 1 2 2 0 0
0 0 0 0 0 0 0 1 0 1 0 0 2 1 1 2 1 0 0 0 0 1 0 17 16 2 15 9 0 4 1 0
0 0 0 0 0 0 0 0 0 1 0 0 1 2 1 2 1 0 0 1 0 0 11 20 25 18 3 0 2 0 3 0
0 0 0 0 0 0 0 0 0 0 0 0 0 0 0 2 1 1 0 0 0 0 0 9 13 8 7 0 0 0 0 0
0 0 0 0 0 0 0 1 0 0 0 0 0 0 0 0 0 0 0 0 0 2 0 7 18 12 18 12 5 5 0 9
0 0 0 0 0 0 0 0 0 0 0 0 0 0 0 0 0 0 0 0 0 0 0 0 16 16 3 0 4 20 18 35
0 0 0 0 0 0 0 0 0 0 0 0 0 0 0 0 0 0 0 0 0 0 0 0 6 17 6 4 0 0 7 31

GFSFLT2_con_mlcape_096.txt.gz
CAPE
832 989 1355 1505 1564 1555 1486 1393 1218 1030 873 1003 458 301 225 91 82 51 105 326 546 615 497 364 172 73 38 2 1 0 0 0
1036 880 968 1144 1377 1598 1555 1265 1004 756 688 692 293 112 59 10 0 1 20 256 345 477 362 204 73 16 20 0 0 0 0 0
928 874 724 687 822 1129 1191 804 526 403 373 368 52 0 0 1 0 6 119 151 191 388 192 84 19 8 0 0 0 0 0 0
712 521 383 341 460 634 643 494 200 249 176 125 29 0 20 61 33 105 127 142 164 177 70 3 0 0 0 0 0 0 0 0
507 268 135 144 198 131 360 487 173 143 68 2 0 0 7 32 38 74 115 114 147 91 15 0 0 0 0 0 0 0 0 0
200 161 89 60 14 40 184 214 55 5 0 0 0 0 0 6 16 41 83 92 87 1 0 0 0 0 0 0 0 0 0 0
56 98 105 27 0 0 0 0 6 1 0 0 0 0 0 2 9 32 76 89 35 1 0 0 0 0 0 0 0 0 0 0
0 38 66 41 0 0 0 0 0 0 0 0 0 2 3 8 10 48 10 15 7 0 0 0 0 0 0 0 0 0 0 0
0 0 15 45 0 0 0 0 0 0 1 0 0 2 1 12 5 11 2 5 5 0 0 0 0 0 0 0 0 0 0 0
0 0 0 0 0 0 0 1 9 12 0 2 3 1 2 3 6 19 0 0 1 0 0 0 0 0 0 0 0 0 0 0
9 0 0 0 0 0 0 0 5 41 12 4 9 14 2 4 23 8 4 1 0 0 0 0 0 0 0 0 0 0 0 0
14 0 0 0 0 0 0 0 0 16 52 22 13 27 10 0 6 0 0 0 0 0 0 0 0 0 0 0 0 0 0 0
26 5 0 0 0 0 0 0 0 0 7 23 35 24 19 9 1 0 0 0 0 0 0 0 0 0 0 0 0 0 0 0
28 11 0 0 0 1 0 2 1 0 0 1 4 4 18 16 1 1 1 0 0 0 0 0 0 0 0 0 1 0 0 0
50 14 0 0 0 0 1 1 1 0 0 0 0 0 0 42 1 2 2 0 0 0 0 0 0 0 0 0 1 2 0 0
31 7 0 1 1 1 0 0 0 0 0 0 0 0 0 2 2 1 2 1 0 0 0 0 0 0 0 1 0 0 9 0
31 6 0 0 1 0 0 0 0 0 0 0 0 0 0 6 4 1 1 0 0 0 0 0 0 10 21 17 8 14 9 9
5 7 3 1 1 0 0 0 0 0 0 0 0 4 7 13 5 1 2 1 0 0 0 0 0 11 43 44 55 48 30 17
4 0 3 1 1 0 0 0 0 0 0 0 0 1 2 1 1 1 1 1 0 0 0 0 14 16 27 43 67 25 14 3
2 0 0 0 0 0 0 0 0 0 0 0 0 0 0 1 0 1 1 1 2 1 0 0 20 15 22 29 5 10 6 19

GFSFLT2_con_mlcape_099.txt.gz
CAPE
1196 1420 1250 1246 1280 1235 1197 1181 1191 822 779 962 707 477 277 201 243 396 367 280 288 347 757 526 418 245 91 19 3 2 0 0
1027 1376 1553 1575 1615 1373 1340 1335 1142 967 521 573 459 208 151 28 358 333 106 106 227 261 485 311 280 158 40 2 0 0 17 1
1171 1104 1214 1450 1589 1495 1403 1324 1100 941 638 614 401 284 116 375 242 114 79 101 104 46 323 163 141 81 8 0 1 12 1 2
1320 1187 1096 1079 1108 1216 1180 1012 702 593 627 589 525 305 231 95 8 2 43 51 98 204 184 82 82 19 10 0 21 0 2 4
1008 930 893 782 632 618 709 677 436 221 320 261 119 24 1 0 1 20 107 19 154 147 82 133 145 75 6 0 0 0 1 18
666 602 601 566 478 399 387 437 407 124 88 94 55 13 1 0 64 118 92 162 87 53 120 91 33 0 0 0 0 0 0 11
524 357 404 360 303 261 246 245 234 95 52 22 66 65 46 93 52 68 70 118 18 2 4 3 0 0 0 0 0 0 0 18
334 167 193 225 208 137 106 110 64 16 5 16 20 4 3 0 5 25 83 109 2 1 0 0 22 0 0 0 0 0 0 6
75 58 125 118 67 71 36 3 0 2 1 2 3 2 4 3 2 5 34 63 1 2 1 0 1 0 0 0 0 0 0 0
0 17 35 61 26 40 0 1 1 2 2 4 4 30 6 6 2 20 11 1 2 3 3 0 0 0 0 0 0 0 0 0
3 2 12 17 100 39 0 0 0 0 11 4 16 3 36 11 13 1 4 2 3 3 3 0 1 6 4 0 0 0 0 0
26 1 0 0 13 3 2 0 0 6 10 12 35 42 28 10 10 3 1 1 2 2 1 0 6 11 1 0 0 2 2 2
42 16 0 0 0 0 0 0 1 2 0 15 38 64 33 5 3 1 2 1 0 1 1 0 7 9 2 4 3 5 2 2
56 49 0 0 0 1 2 0 0 0 0 0 33 64 49 27 0 1 0 1 2 1 0 2 0 0 0 1 2 2 5 4
9 100 14 5 2 1 0 0 0 0 0 1 9 7 34 60 1 2 1 0 0 0 0 0 1 0 0 0 2 3 3 5
57 108 14 1 0 0 0 0 0 0 2 2 0 0 2 5 9 2 2 1 0 0 0 0 0 0 0 0 2 0 11 6
83 77 1 1 1 0 0 0 0 2 2 0 0 0 0 7 1 2 2 2 1 0 0 0 0 0 0 0 0 6 9 7
85 38 1 1 2 0 0 0 0 0 0 0 0 1 3 10 7 3 2 2 3 2 0 0 0 0 0 0 0 1 8 19
113 29 0 2 3 1 0 1 0 0 0 0 0 0 1 10 15 7 1 3 2 2 0 0 0 0 0 0 1 12 29 50
89 29 4 2 3 0 2 0 0 0 0 0 1 1 0 4 14 2 0 0 2 2 3 1 0 0 0 0 0 9 43 43

GFSFLT2_con_mlcape_102.txt.gz
CAPE
1876 1634 1453 1188 1102 1024 882 989 1096 1324 1435 1128 861 875 616 466 288 183 2 165 236 558 575 406 524 303 226 84 32 32 165 78
1957 1897 1796 1802 1645 1160 1080 1083 1041 909 1189 1179 859 755 637 347 318 122 338 261 195 105 328 310 268 201 131 41 15 44 173 95
1844 1886 1933 1850 1853 1661 1263 1249 1244 999 854 687 564 844 655 439 296 385 487 282 128 118 96 72 112 112 83 32 0 173 99 68
1728 1806 1815 1953 1784 2031 1869 1903 1618 1430 1089 812 590 608 670 359 266 320 385 153 49 51 36 23 86 151 123 30 193 136 102 22
1650 1810 1791 1667 1426 1525 1493 1532 1385 1325 1111 1019 891 764 653 434 528 272 271 92 170 35 32 35 54 219 181 180 129 154 67 35
1520 1635 1671 1588 1194 1213 1183 879 965 1015 920 686 743 833 595 384 400 120 103 125 129 96 54 44 112 241 221 159 112 32 58 27
1285 1383 1449 1280 1152 831 764 655 581 879 602 384 529 581 357 75 72 63 237 385 99 66 21 39 220 176 104 96 66 28 53 43
1424 1168 1166 1107 965 886 715 675 716 600 471 267 289 500 213 139 106 195 248 382 136 110 37 76 169 148 79 78 69 37 35 36
1206 1185 960 1012 929 926 607 366 739 372 233 207 259 233 292 205 133 116 194 185 38 13 2 26 38 91 66 64 77 52 26 17
956 964 781 638 804 811 512 335 539 418 214 123 124 206 272 171 83 5 49 77 13 0 1 15 35 55 57 68 81 29 24 23
732 900 684 401 538 649 533 373 246 374 228 213 202 229 181 117 84 6 21 0 2 2 2 0 8 50 70 61 43 23 13 21
546 666 745 303 260 674 479 177 105 81 26 243 146 122 189 124 122 1 1 2 1 2 1 2 20 64 60 59 41 21 17 15
387 566 745 248 388 514 333 51 11 101 19 44 113 163 100 53 24 2 2 3 0 1 2 1 3 45 26 15 26 30 5 7
215 424 691 442 547 459 190 131 14 34 4 58 118 152 66 37 15 6 2 3 3 2 1 3 1 23 16 6 4 2 22 18
93 300 633 544 615 460 212 156 16 16 8 3 9 88 31 16 7 2 3 1 2 3 1 8 1 0 4 24 3 8 4 8
9 168 503 521 621 417 89 6 0 0 7 1 2 5 15 23 23 6 1 1 1 3 3 0 0 0 12 24 13 8 6 17
26 143 404 474 614 398 181 164 69 1 4 3 2 12 27 25 14 8 4 2 2 1 2 2 0 0 0 14 27 24 0 0
126 201 423 509 527 386 277 212 42 0 0 2 7 9 10 12 30 3 2 2 2 2 0 0 0 0 4 25 10 9 14 29
246 304 442 457 273 295 250 64 30 0 0 0 1 0 10 11 21 17 3 2 2 2 1 0 0 0 0 2 0 0 1 29
337 356 397 212 143 234 139 3 60 0 0 0 0 4 13 15 16 20 8 3 2 2 3 2 1 0 0 0 0 2 0 18

GFSFLT2_con_mlcape_105.txt.gz
CAPE
2100 1539 1251 889 776 668 751 1023 1190 1369 1653 1577 1239 1042 873 554 560 304 348 365 429 471 328 539 567 374 324 309 283 202 251 139
2146 1958 1705 1573 1259 854 766 781 901 1183 1270 1458 1245 938 650 392 375 223 174 3 408 194 411 259 250 185 189 208 78 94 257 77
2022 1963 1833 1799 1648 1456 978 942 907 882 1218 1166 1048 1165 1006 749 518 410 100 98 361 262 271 118 63 109 103 103 82 162 250 43
1671 1800 1776 1761 1676 1962 1614 1521 1425 1319 1043 1176 1278 868 1026 903 725 352 160 308 294 180 35 36 23 24 80 71 128 212 211 23
1383 1708 1783 1858 1743 1794 1718 1784 1802 1756 1465 1066 906 755 889 858 691 398 357 285 295 40 17 15 9 2 77 151 167 172 94 37
1335 1573 1798 1838 1435 1748 1513 1705 1804 1558 1518 1387 996 905 781 768 593 616 498 423 261 180 90 17 0 6 90 217 195 164 24 30
1386 1501 1815 1774 1663 1430 1196 1186 1361 1371 1413 1269 1207 1121 1002 821 662 585 417 462 380 225 75 6 6 15 75 169 196 237 43 26
1391 1586 1657 1629 1542 1316 1121 956 870 1074 1125 1115 1164 1006 896 846 625 527 305 296 342 313 113 28 20 12 115 187 136 88 59 30
1454 1705 1649 1595 1472 1443 1247 953 755 761 730 1037 1035 977 828 648 374 154 226 426 373 243 102 56 46 52 162 94 68 49 58 27
896 1648 1706 1550 1385 1370 1214 747 695 776 580 919 868 848 794 647 441 380 373 307 185 102 83 30 22 80 62 72 52 17 24 38
437 1509 1740 1501 1385 1355 1263 847 648 445 416 570 630 638 669 497 372 358 322 222 34 18 42 35 30 52 57 47 36 33 17 11
102 1262 1732 1528 1230 1294 1187 969 763 427 496 484 482 577 587 329 227 312 260 52 4 2 5 5 20 41 27 33 30 45 32 19
166 821 1544 1401 789 944 1046 983 254 294 274 441 534 409 305 254 165 2 2 0 0 1 1 0 12 33 18 33 46 31 22 18
64 583 1077 1316 754 762 979 882 235 339 330 306 260 119 206 235 102 3 2 2 2 1 1 1 2 6 18 4 31 17 29 25
0 250 685 1205 760 869 1007 768 346 242 193 241 189 164 199 245 90 5 2 2 2 1 1 2 8 0 0 10 2 14 29 33
0 9 378 879 959 912 959 759 523 283 347 63 181 106 134 139 8 1 2 2 2 1 3 2 1 0 2 20 7 6 22 7
0 0 135 617 1114 987 1078 818 631 402 297 106 31 72 49 70 11 13 0 2 2 0 3 13 1 0 0 9 5 16 39 60
0 0 59 469 1011 1020 1081 819 638 549 395 85 5 22 23 44 22 8 2 2 2 2 3 11 17 2 1 7 3 3 7 22
0 4 75 392 935 1024 1020 798 804 658 331 28 26 3 5 28 41 14 8 2 2 0 2 2 1 1 0 1 8 32 20 27
0 1 201 317 877 984 979 921 881 574 290 29 20 5 5 4 8 25 17 8 2 1 3 0 1 2 6 11 17 29 2 4

GFSFLT2_con_mlcape_108.txt.gz
CAPE
1402 970 797 598 507 510 806 1149 1377 1412 1490 1708 1662 1413 1320 1134 1005 1059 1075 849 566 758 919 780 488 581 483 427 454 261 144 238
1925 1447 1119 883 674 498 552 752 931 1167 1427 1580 1496 1360 1159 981 787 643 661 590 511 564 494 235 291 142 168 128 164 113 35 117
2422 2024 1603 1435 1283 733 563 565 701 890 1156 1281 1320 1277 1030 786 568 411 292 230 393 555 385 262 69 44 56 99 60 99 31 40
2307 2151 1929 1934 1451 1357 951 865 779 798 1093 1166 1290 1228 1158 920 596 411 194 11 83 352 209 135 44 41 66 56 40 97 55 18
1919 2096 2049 2013 1392 1693 1441 1347 1252 1194 1093 1198 1110 1079 1053 1022 940 470 312 186 351 228 99 37 18 10 25 9 12 84 66 16
1627 1877 2120 1745 1538 1962 1828 1635 1663 1524 1466 1274 1039 941 718 854 845 747 574 423 339 175 70 36 3 0 0 1 25 82 43 14
1433 1762 1883 2139 2007 1802 1537 1501 1714 1702 1335 1401 1132 984 835 861 770 726 641 600 390 183 135 34 3 0 0 3 30 53 39 13
1342 1531 1992 2071 1652 1928 1510 1433 1386 1112 1179 994 1301 1064 889 769 715 606 569 521 395 329 195 45 9 3 0 13 46 76 30 25
1382 1568 2036 1965 1844 1774 1371 1169 853 847 859 837 1054 1185 895 648 650 606 584 445 454 280 164 53 5 13 14 14 56 56 61 20
1559 1777 1795 1927 1880 1768 1388 1395 960 654 644 750 706 923 989 728 578 433 315 284 238 188 124 136 35 22 9 21 62 27 46 38
1708 1695 1857 1836 1911 1643 1477 1312 1038 946 502 346 605 826 790 719 526 385 332 255 199 208 155 79 24 34 26 42 37 9 34 18
1511 1789 1953 1834 1799 1651 1498 1314 787 743 610 628 543 566 755 764 602 397 171 219 98 80 33 39 14 25 68 78 13 27 28 14
500 1902 1970 1831 1652 1604 1460 1288 976 641 537 419 299 414 541 680 410 229 175 58 30 1 2 12 25 38 14 48 1 27 22 42
14 1765 2001 1806 1672 1488 1394 1304 928 526 327 303 436 435 635 514 277 77 0 2 1 2 3 7 11 13 7 21 2 1 2 22
0 232 1989 1747 1569 1165 1092 1005 538 327 363 209 280 476 321 334 185 5 0 1 1 1 0 0 2 7 0 0 2 2 7 20
0 2 648 1620 1443 924 807 914 674 371 418 195 283 197 277 234 108 0 0 2 0 1 1 0 1 3 4 0 0 0 0 4
11 6 147 1107 1429 1014 857 1181 745 269 365 236 163 353 170 230 78 7 1 1 0 1 0 0 0 2 0 0 0 0 19 15
0 11 32 431 1373 1150 1044 1185 889 583 514 314 128 178 150 87 69 3 0 1 1 1 1 1 0 5 0 0 0 0 0 0
0 0 17 116 1256 1222 1148 1345 1046 723 563 406 148 83 45 66 29 33 7 1 1 0 1 3 0 0 0 0 3 3 2 2
0 0 0 62 767 1427 1123 1541 1023 828 689 412 99 63 22 11 72 16 1 1 2 1 2 0 0 1 0 0 0 0 8 13

GFSFLT2_con_mlcape_111.txt.gz
CAPE
375 554 569 558 671 854 1019 1197 1301 1253 1287 1509 1623 1341 1164 1109 1310 1365 1185 921 926 965 929 894 818 701 766 648 307 236 141 256
438 460 544 449 507 600 746 1000 1107 901 1114 1362 1609 1388 1188 998 1015 1187 1202 865 771 756 671 601 422 439 460 279 261 160 45 166
754 510 501 408 389 445 567 727 915 1042 1127 1399 1429 1332 1202 961 766 861 846 832 679 613 390 298 208 120 122 137 89 72 26 89
1487 768 618 566 519 439 380 467 633 740 1007 1079 1176 1105 1038 839 637 556 455 461 504 434 335 121 86 19 14 66 70 42 40 106
1982 1587 1178 1100 1128 801 436 394 410 491 693 738 931 1068 955 745 476 392 200 44 75 323 192 119 31 0 23 32 4 41 44 77
2137 1910 1745 1597 1259 1073 920 674 556 490 454 676 750 751 834 694 561 354 225 108 59 83 53 46 12 0 10 18 4 3 37 47
1894 1952 1885 1688 1422 1377 1266 1069 971 989 939 875 917 710 647 669 734 393 365 190 86 4 10 0 0 0 0 0 0 6 25 26
1752 1804 1876 1700 1501 1544 1478 1413 1423 1323 1158 1146 903 739 572 493 533 608 491 436 181 39 2 0 0 0 0 0 0 8 36 14
1511 1662 1891 1759 1635 1683 1542 1180 1296 1262 1135 1028 867 850 717 571 513 446 436 443 315 67 1 0 0 0 0 1 3 17 34 7
1363 1629 1793 1899 1663 1645 1508 1132 906 889 620 677 535 725 699 547 516 438 376 368 224 101 12 17 0 0 1 4 12 29 43 10
1252 1557 1755 1844 1702 1392 1253 1112 904 658 504 510 451 548 778 526 399 407 330 255 181 78 44 12 0 2 2 8 7 25 32 9
795 1413 1801 1842 1730 1454 1273 1069 892 650 479 368 354 314 530 476 380 341 245 196 135 53 3 1 22 3 16 16 0 30 4 7
841 1320 1768 1828 1800 1500 1394 1111 938 743 547 280 158 281 431 424 398 286 212 216 158 37 19 23 13 13 24 53 9 24 0 2
623 1367 1690 1763 1813 1461 1300 1099 660 574 410 377 248 264 340 478 471 284 205 107 41 0 6 3 4 5 29 69 3 4 2 11
40 1265 1737 1710 1622 1479 1162 1035 786 426 323 289 284 251 264 351 324 168 39 11 0 0 0 1 3 15 31 1 0 0 0 5
106 1376 1789 1670 1554 1484 1243 1067 894 703 353 206 254 285 267 444 279 76 3 0 0 1 0 3 6 9 1 1 0 0 0 10
0 25 1744 1603 1495 1317 1187 872 628 460 356 323 120 126 197 218 95 19 0 0 0 2 3 1 4 1 2 0 0 0 0 0
0 0 10 1145 1214 1148 1006 900 550 456 359 336 176 152 122 187 68 11 0 0 1 0 2 2 1 1 0 0 0 0 1 0
0 0 0 0 946 973 826 661 589 492 356 280 192 183 150 155 90 8 0 0 0 1 2 1 0 1 1 0 0 0 0 0
0 0 0 0 525 982 796 681 599 598 331 216 184 132 145 113 98 21 2 0 0 1 2 2 0 0 0 0 0 0 1 0

GFSFLT2_con_mlcape_114.txt.gz
CAPE
452 653 690 705 717 879 1042 1077 1227 1302 1331 1368 1235 1104 1127 1206 1311 1403 1142 1083 1127 1119 1015 959 893 896 746 429 411 227 358 319
314 447 647 737 858 866 1021 1107 1052 1023 1275 1391 1307 1105 1060 1089 1258 1353 1095 1016 1063 991 870 874 848 750 467 376 329 107 163 209
297 364 391 488 693 926 1010 1060 921 784 973 1109 1456 1200 1084 999 1049 1267 1116 857 851 812 729 661 547 514 179 204 209 107 109 228
342 380 321 345 488 758 841 993 875 725 855 1041 1300 1218 1033 939 820 969 1034 848 717 674 546 464 300 187 80 64 31 37 69 128
652 368 403 355 362 384 470 663 668 693 787 951 1126 1040 991 829 612 618 503 645 585 540 408 205 69 26 7 2 2 19 49 88
1229 679 437 466 449 266 304 322 335 351 532 733 805 843 757 653 427 294 210 119 328 303 191 91 30 0 0 0 0 1 31 89
1573 1265 799 617 629 473 348 275 268 232 278 479 535 628 648 575 361 214 118 20 13 3 0 0 5 0 0 0 0 0 9 53
1898 1741 1488 1188 1005 897 635 543 409 338 296 321 532 488 504 549 355 250 147 72 25 4 1 0 0 0 0 0 0 0 0 7
1971 1961 1767 1587 1344 1274 1096 962 822 805 758 701 691 679 482 456 484 422 321 144 59 20 0 0 0 0 0 0 0 7 1 7
1917 2144 1872 1689 1543 1494 1343 1149 1262 1181 1037 952 913 817 615 438 349 325 253 191 114 38 11 0 0 0 0 0 0 8 8 18
1541 1949 1909 1832 1659 1522 1443 1253 1384 1260 1162 1095 1020 776 565 527 391 275 228 188 171 100 30 4 1 1 1 0 5 13 15 55
262 1497 1741 1862 1717 1479 1329 1189 1029 1071 1041 875 722 591 490 478 390 314 263 228 119 72 52 11 1 2 1 1 1 9 18 45
0 624 1470 1844 1715 1451 1401 1442 1076 840 783 600 413 385 393 395 377 258 186 176 126 133 93 41 3 1 28 7 0 4 18 27
0 133 1096 1700 1696 1571 1317 1122 811 724 538 483 333 307 275 296 361 200 173 147 117 125 56 38 10 7 18 5 4 2 9 19
0 463 841 1617 1755 1393 1023 671 487 651 692 585 346 299 207 284 331 218 152 158 115 67 39 9 6 4 4 2 5 5 2 10
0 584 1504 1687 1692 1379 1208 1054 822 847 771 499 344 171 166 300 291 213 166 126 61 23 11 0 0 1 10 5 0 0 1 0
0 0 100 1431 1337 1339 1295 1159 931 639 462 392 345 199 190 247 179 171 111 39 0 0 0 0 0 1 3 1 5 0 0 0
0 0 0 0 406 1170 1092 1071 964 642 456 321 240 197 163 201 142 145 76 20 0 0 0 0 1 3 6 1 0 0 0 0
0 0 0 0 0 255 996 941 764 680 520 429 280 161 152 241 158 101 51 7 0 0 0 2 2 1 3 1 0 0 0 0
0 0 0 0 0 0 645 914 751 529 396 405 351 290 193 86 114 61 21 0 0 0 1 3 6 2 1 0 0 0 0 0

GFSFLT2_con_mlcape_120.txt.gz
CAPE
913 1083 1110 1081 1029 1048 913 832 785 698 708 776 879 939 1003 997 1055 1140 1260 1215 1211 815 619 664 852 880 825 678 667 633 524 405
757 824 917 958 1054 1019 941 856 834 857 795 810 843 917 964 991 1050 1079 1106 1082 974 715 633 638 785 781 741 623 471 533 441 357
772 804 861 855 989 1017 965 954 949 1003 977 905 906 937 1009 1038 1084 1087 1015 933 813 684 603 632 672 668 595 502 293 270 331 266
673 764 766 856 921 1029 940 936 1159 1128 1127 1029 932 873 950 1034 1066 1127 964 816 715 634 541 613 393 265 369 366 82 85 179 204
531 616 683 812 799 957 874 979 1063 1037 1025 1062 961 852 900 942 974 1124 884 825 613 570 483 419 229 81 119 229 193 39 45 117
403 601 610 760 758 794 838 851 967 888 888 995 1002 828 783 719 748 927 828 667 465 356 288 220 99 40 14 0 0 22 21 59
289 563 557 653 622 612 738 768 831 778 746 861 986 973 773 636 583 616 705 523 373 215 100 45 32 24 6 0 0 0 0 0
295 451 467 506 500 416 452 592 625 557 570 681 828 888 785 594 538 453 417 507 428 219 49 0 9 3 0 0 0 0 0 0
295 375 489 402 316 293 256 231 347 345 377 564 711 757 685 535 484 399 297 217 216 75 0 0 0 0 0 0 0 1 0 0
1216 774 550 447 372 314 247 233 212 181 226 383 587 680 593 389 409 391 233 140 70 28 0 0 0 0 0 0 0 0 0 0
1828 1565 1047 582 475 419 251 211 238 223 240 266 405 526 544 467 429 314 267 180 68 26 1 0 0 0 0 0 0 0 0 0
1795 1912 1801 1293 804 682 522 402 326 311 277 271 266 396 440 405 358 304 289 266 126 49 39 2 2 1 1 1 0 0 0 0
1342 1990 1978 1769 1471 1203 987 840 631 520 526 423 355 359 345 336 349 323 318 331 195 116 118 41 4 0 2 2 2 4 6 5
0 737 1939 1923 1808 1628 1497 1321 1111 991 825 721 671 608 596 496 507 424 369 357 304 207 96 39 34 13 19 16 31 4 18 5
0 0 475 1757 1966 1770 1348 1195 972 1052 961 900 900 942 904 734 613 543 310 350 314 219 78 54 13 1 16 32 24 11 7 10
0 0 0 816 1854 1753 1542 1537 1406 1272 1164 975 925 1047 1084 885 716 585 333 325 382 197 109 59 39 5 4 12 10 4 5 1
0 0 0 0 645 1612 1590 1484 1420 1016 1020 977 930 429 516 793 639 459 325 255 255 189 128 77 45 37 20 8 24 8 2 6
0 0 0 0 0 124 800 1359 1300 1172 996 924 709 517 405 497 460 357 238 199 192 192 123 78 44 46 20 11 9 26 19 11
0 0 0 0 0 0 0 67 478 1141 1087 920 639 400 410 372 135 220 185 165 157 126 90 61 36 34 0 5 10 10 3 2
2 3 1 2 0 0 0 0 0 125 797 676 642 554 363 181 72 185 146 106 64 51 55 44 44 15 0 3 1 0 0 0

GFSFLT2_con_mlcape_123.txt.gz
CAPE
1363 1494 1348 1174 1108 1048 869 682 625 698 860 988 1112 1188 1191 1233 1337 1399 1487 1459 1123 566 514 608 708 728 622 626 651 689 1095 1050
1328 1489 1579 1520 1427 1151 1007 855 721 697 816 951 1019 1070 1163 1056 1193 1348 1364 1297 979 565 485 622 690 638 549 501 496 499 952 854
1383 1387 1441 1554 1454 1386 1139 1035 893 791 852 941 1028 1341 1368 1153 1205 1140 1117 1057 789 567 482 572 626 601 549 354 346 871 909 854
1269 1404 1397 1376 1250 1328 1530 1448 1309 1200 1176 1207 1417 1482 1514 1412 1258 1038 1068 933 731 562 513 456 537 711 665 356 621 615 750 817
1136 1224 1319 1172 1122 1172 1373 1457 1321 1345 1329 1365 1365 1331 1363 1402 1531 1307 1351 992 1012 745 658 723 421 354 695 750 571 406 616 707
1028 1164 1155 1147 1148 1107 1114 1028 1088 1115 1171 1200 1119 1097 1241 1339 1365 1490 1443 1262 1121 930 806 416 571 394 439 578 564 523 410 465
722 862 995 957 1109 1087 1062 893 956 1091 1141 1221 1146 1030 997 1134 1245 1297 1345 1222 1013 665 503 495 441 243 144 138 165 246 315 349
562 739 958 1036 1089 996 890 909 911 1002 1070 1168 1228 1176 965 910 1017 1079 1095 1098 920 750 393 371 395 204 28 11 20 55 76 139
560 553 906 1018 1077 960 778 808 792 905 862 1067 1162 1098 957 768 792 916 960 915 836 576 176 73 265 36 5 4 25 32 30 35
1241 705 706 920 1107 1072 749 707 675 634 532 648 814 906 868 760 686 771 766 617 494 282 74 80 216 162 114 29 7 14 30 19
1535 1221 757 682 1033 1077 937 653 483 467 456 462 567 754 723 647 674 622 581 570 410 256 89 112 14 0 55 54 1 0 16 13
1655 1614 1330 841 962 1047 897 733 672 651 476 481 501 601 608 744 652 471 471 466 391 268 186 29 22 1 1 1 2 3 6 25
1604 1967 1656 1325 986 948 819 486 538 598 625 643 613 664 625 787 638 474 396 414 354 252 158 59 36 18 2 2 4 6 9 3
3 1130 2123 1736 1505 1428 1231 1096 932 761 676 654 680 673 568 572 544 405 314 390 331 218 139 74 49 36 49 24 1 1 1 17
0 0 617 2064 2105 1988 1557 1572 1307 1087 892 715 674 708 649 561 524 428 329 385 354 235 178 237 123 30 83 100 7 22 0 1
0 0 0 391 1718 2156 1883 1691 1592 1562 1326 1061 846 844 866 702 525 481 414 466 457 354 299 393 168 42 16 52 47 5 5 8
1 0 0 0 333 1520 1857 1770 1977 1880 1522 1256 1087 969 989 806 648 512 510 511 476 297 299 311 125 51 16 12 22 2 4 14
1 1 1 2 1 46 658 1585 1790 1576 1583 1414 1192 1022 774 750 608 569 471 384 401 267 415 318 131 52 37 15 12 7 1 7
2 2 2 3 1 1 1 16 114 661 1566 1405 1155 943 690 678 576 436 520 523 448 306 259 330 204 92 67 46 52 56 87 7
4 5 4 4 1 3 0 1 5 5 25 318 934 805 759 497 396 441 479 434 370 267 200 169 153 136 74 61 54 23 38 11

GFSFLT2_con_mlcape_126.txt.gz
CAPE
2151 1724 1352 1013 966 819 634 591 682 905 1087 1214 1342 1316 1220 1268 1303 1373 1424 1313 1186 944 601 584 655 684 719 706 693 735 1172 1050
2392 2062 1863 1704 1521 1017 781 682 710 888 1060 1178 1294 1277 1281 1327 1401 1426 1522 1375 1044 558 536 586 659 575 536 527 506 537 1127 977
2417 2304 2113 2078 1962 1688 1050 832 778 912 1137 1254 1370 1408 1552 1549 1474 1465 1496 1447 980 575 565 603 601 473 405 368 332 772 976 899
2231 2270 2238 2242 2032 2048 1749 1580 1231 1221 1332 1527 1458 1435 1558 1408 1394 1431 1245 1143 965 608 566 583 590 842 674 253 600 841 854 859
1982 2224 2199 2115 1876 1887 1852 1764 1623 1537 1542 1619 1525 1682 1695 1536 1613 1392 1341 1064 1080 779 690 785 818 940 900 729 717 847 620 662
1740 1939 2133 2090 1802 1708 1825 1778 1754 1723 1682 1830 1713 1808 1791 1575 1608 1434 1431 1330 1131 964 923 844 1087 1032 883 879 846 622 454 478
1357 1707 1899 1914 1876 1614 1613 1650 1757 1657 1626 1740 1858 1663 1743 1751 1733 1597 1541 1498 1376 1147 977 1138 888 822 753 740 691 660 556 388
1315 1464 1642 1673 1626 1641 1677 1607 1460 1551 1494 1559 1601 1639 1645 1689 1778 1748 1711 1718 1471 1211 1043 973 786 674 572 493 374 350 356 296
544 1333 1593 1538 1408 1630 1630 1429 1451 1383 1523 1526 1583 1713 1688 1629 1684 1715 1513 1609 1585 1382 1137 940 773 688 522 508 295 251 198 279
0 1014 1349 1593 1473 1418 1467 1412 1319 1393 1467 1588 1517 1733 1675 1487 1387 1489 1595 1561 1543 1331 1129 779 821 747 571 494 351 296 321 303
0 498 1393 1472 1536 1437 1395 1399 1268 1243 1315 1304 1437 1463 1686 1453 1250 1189 1448 1116 944 1019 888 857 744 856 658 584 475 378 360 265
0 63 1563 1570 1549 1481 1359 1372 1243 1137 1043 956 1044 1213 1331 1220 1110 1055 1056 1215 877 844 620 504 856 797 539 499 481 466 377 314
0 0 1312 1810 1575 1257 1231 1237 1351 1110 1172 1123 1169 983 997 1112 1096 934 872 1115 945 899 675 555 583 674 581 328 218 312 291 246
0 5 521 1841 1810 1311 1106 1135 1165 1226 1285 1216 1247 1297 1135 979 1091 941 844 1016 962 799 705 438 432 396 286 214 239 154 43 36
0 0 1102 1799 2121 1821 1397 1287 1363 1420 1455 1379 1360 1312 1339 1166 1221 1412 1093 973 855 651 549 448 340 282 487 171 125 34 42 102
1 2 0 1328 2095 2028 1894 1880 1967 2071 2067 1865 1641 1388 1290 1346 1262 1308 1212 944 875 701 511 495 443 220 192 459 112 113 64 27
0 0 0 0 956 1214 1648 2091 2188 2325 2156 2059 1637 1402 1359 1391 1392 1397 1302 877 918 647 453 555 736 818 503 259 211 261 180 64
0 0 1 2 2 57 700 1330 2355 2154 2279 2103 1571 1298 1245 1337 1691 1484 1091 840 785 797 630 700 751 807 597 264 186 171 131 83
3 2 4 2 4 3 3 51 429 924 1100 1388 1641 1319 1269 1272 1279 1053 889 857 772 810 779 501 562 770 689 436 228 85 66 68
3 3 4 3 4 5 4 5 6 5 2 7 224 794 1325 1187 1033 932 845 802 878 1053 1075 828 801 968 756 467 296 210 108 111

GFSFLT2_con_mlcape_129.txt.gz
CAPE
2735 1821 1428 880 769 719 850 1082 1208 1326 1460 1599 1654 1521 1367 1304 1318 1378 1548 1375 1259 1199 791 665 636 708 760 759 707 679 1048 982
2641 2137 1787 1492 1233 762 731 875 1147 1316 1524 1590 1543 1458 1369 1316 1317 1395 1546 1391 1295 959 662 581 623 662 666 611 581 523 1206 927
2529 2460 2172 1893 1807 1393 816 763 865 1033 1313 1468 1537 1508 1599 1578 1419 1486 1557 1431 1200 603 528 602 603 548 528 468 380 708 750 815
2617 2586 2493 2308 2062 2054 1490 1347 1152 1239 1367 1636 1544 1424 1629 1501 1362 1567 1381 1443 1100 602 528 572 542 716 637 372 584 881 515 757
2567 2564 2606 2579 2268 2132 2012 1821 1551 1523 1591 1716 1584 1576 1854 1698 1723 1729 1687 1447 1267 743 674 786 714 872 742 647 577 734 550 796
2063 2384 2526 2710 2252 1948 1928 1920 1940 1788 1744 1982 1845 1800 1855 1771 1562 1723 1574 1429 1126 1034 918 835 836 1046 842 915 865 840 460 820
0 2166 2360 2615 2597 1987 1932 1947 1801 1751 1779 1997 2010 1720 1985 1986 1868 1551 1508 1536 1309 1167 1021 926 1085 956 851 803 809 736 732 564
0 727 2241 2350 2453 2380 2079 1974 1805 2068 2055 1908 2236 1946 2016 1941 1793 1768 1638 1693 1529 1289 1141 1024 1173 959 784 774 759 706 609 569
0 101 1792 2304 2397 2195 2048 1759 1870 2083 1888 1966 2128 2183 2011 1776 1916 1828 1758 1832 1571 1294 1156 1113 1052 922 829 713 648 558 510 494
0 0 1096 2262 2217 2089 1938 1746 1844 1641 1664 1716 1733 1988 1944 2001 1874 1899 1894 1917 1792 1703 1428 1328 1134 911 798 748 632 609 492 421
0 0 0 1872 2221 2114 2035 1906 1824 1633 1561 1649 1886 1750 1952 2119 1680 1751 2097 1809 1812 1824 1658 1477 1098 991 894 794 723 608 607 423
0 0 0 869 2119 2066 1936 1893 1753 1686 1519 1525 1785 1871 1778 2133 1677 1575 1682 1697 1801 1538 1301 1275 1119 887 883 786 678 650 601 463
0 0 0 0 1910 1803 1986 1661 1666 1736 1590 1427 1527 1722 1682 1775 1707 1418 1282 1547 1387 1216 1122 1045 1190 1086 1028 727 778 717 718 621
0 0 0 0 1189 1960 1834 1832 1659 1707 1447 1329 1327 1429 1652 1616 1502 1363 1160 1066 1240 1113 970 908 1112 1039 962 667 404 340 556 556
0 0 0 0 23 1683 1939 1982 1648 1542 1293 1281 1508 1548 1507 1334 1190 1446 1175 1102 1266 1062 931 824 774 664 821 521 266 93 30 461
1 1 3 0 4 151 1806 1424 1554 1411 1322 1430 1467 1694 1713 1665 1344 1392 1389 1304 1227 1341 961 750 661 496 687 925 750 384 155 97
0 3 1 0 0 4 1239 1294 1639 1391 1426 1452 1702 1864 1935 1895 1703 1470 1688 1767 1509 1510 931 746 666 688 515 484 638 870 425 311
1 1 1 1 0 2 273 1468 1264 1176 1086 1499 2078 1853 1760 1828 1810 1818 1772 1837 1732 1236 1397 737 845 782 820 585 768 473 299 378
3 1 2 2 2 2 3 2 255 118 0 1 1314 1593 1415 1560 1531 1581 1895 1918 1742 1389 1321 949 819 1021 639 554 759 480 352 360
2 5 3 2 2 2 3 3 4 3 0 7 13 271 828 1750 1907 1528 1406 1297 1166 1140 1255 1096 1050 943 712 167 831 773 546 313

GFSFLT2_con_mlcape_135.txt.gz
CAPE
1722 1471 1205 1030 1118 1365 1515 1549 1554 1525 1500 1403 1416 1321 1219 1211 1243 1436 1562 1587 1474 1126 714 566 500 451 431 449 449 529 658 785
2089 1734 1440 906 966 1117 1226 1248 1315 1413 1488 1462 1470 1388 1310 1262 1307 1455 1491 1399 1276 1030 689 538 464 397 406 396 349 378 446 763
2240 1971 1672 1015 865 865 1072 1208 1288 1435 1556 1577 1509 1453 1401 1329 1302 1356 1430 1316 1198 1003 647 495 393 408 366 311 244 171 483 640
2480 2231 1925 1492 1011 1011 764 1002 1247 1434 1554 1530 1502 1465 1377 1320 1262 1231 1321 1327 1219 880 478 429 358 341 253 216 81 131 481 383
0 1789 2280 1952 1631 1272 1095 743 895 1269 1460 1451 1487 1503 1467 1347 1209 1235 1332 1312 1140 736 406 365 340 357 178 66 32 191 349 354
0 0 328 1760 1637 1715 1461 1200 645 821 1383 1520 1430 1293 1419 1249 1232 1163 1362 1345 1114 750 397 299 298 572 708 412 232 455 478 405
0 0 0 0 709 1224 1688 1472 1220 833 835 1392 1435 1281 1296 1514 1424 1384 1365 1396 1266 822 547 261 242 515 733 717 525 437 466 237
0 0 0 0 0 917 1518 1574 1515 1273 1147 1234 1655 1347 1388 1720 1520 1613 1561 1508 1296 1073 897 621 410 645 799 749 726 573 549 351
0 0 0 0 0 0 23 1559 1555 1577 1586 1553 1723 1710 1423 1835 1638 1675 1622 1573 1300 1140 1041 924 797 697 868 700 451 755 538 528
0 0 0 0 0 0 0 0 1029 1286 1639 1796 1695 1823 1543 1708 1727 1663 1697 1589 1464 1297 1182 1066 954 939 746 630 567 580 357 635
0 0 0 0 0 0 0 0 0 1201 1233 1733 1909 1846 1790 1536 1847 1727 1786 1742 1582 1392 1217 1114 828 866 863 849 541 174 337 537
0 0 0 0 0 0 0 0 0 98 1088 1312 1518 2076 1906 1712 1812 1864 1794 1776 1617 1543 1415 1204 930 777 864 797 622 398 338 442
0 0 0 0 0 0 0 0 0 0 11 890 1117 1416 1978 1856 1824 1785 1790 1556 1607 1713 1464 1318 1180 1077 986 791 721 569 405 333
0 0 0 0 0 0 0 0 0 0 0 0 918 1312 1587 1742 1658 1807 1828 1738 1485 1667 1696 1488 1425 1138 955 757 751 769 674 575
0 0 1 0 0 2 1 2 0 0 0 0 767 1069 1373 1178 1211 1686 1597 1621 1551 1574 1532 1455 1310 1139 878 593 354 209 364 539
1 0 1 0 0 0 2 2 3 0 0 0 1 818 1217 1362 1153 1408 1687 1300 1296 1401 1304 1035 774 829 759 612 255 298 12 48
0 0 1 0 1 1 2 2 7 0 0 0 0 98 1097 1197 1130 1171 1336 1151 951 852 948 856 669 617 505 466 767 545 564 630
0 1 2 2 1 2 1 2 1 2 0 3 2 252 741 976 1072 1087 1135 1033 844 751 732 686 617 530 517 349 431 609 413 381
0 2 3 3 1 1 1 2 2 8 11 37 16 1 0 0 38 258 417 982 852 824 734 957 794 704 582 411 382 352 240 253
1 2 2 3 1 1 2 1 3 1 4 1 2 3 0 0 0 0 0 1 827 936 773 1139 1063 876 724 518 469 380 310 313

GFSFLT2_con_mlcape_138.txt.gz
CAPE
1630 1534 1417 1178 1128 1464 1683 1629 1478 1354 1344 1289 1269 1184 1055 1057 1130 1219 1364 1472 1511 1161 741 624 567 506 497 475 477 665 636 678
1670 1369 1420 1287 1043 1185 1414 1602 1627 1544 1540 1507 1411 1299 1127 1074 1097 1229 1373 1409 1369 1084 751 582 527 402 464 446 418 559 552 608
512 1881 1518 1181 940 984 1168 1243 1340 1476 1556 1594 1507 1471 1309 1179 1128 1210 1323 1307 1204 1017 776 577 454 364 388 395 351 281 521 607
0 0 260 1600 1092 840 857 962 1143 1261 1420 1578 1606 1516 1377 1297 1218 1219 1289 1172 1093 968 714 547 430 273 300 337 243 263 561 524
0 0 0 0 91 1217 762 697 807 1054 1336 1526 1520 1522 1426 1350 1219 1244 1269 1228 1116 999 616 403 298 203 195 166 154 147 473 347
0 0 0 0 0 0 66 887 666 709 1139 1427 1379 1388 1313 1267 1105 1056 1109 1148 977 888 505 286 238 199 182 40 38 91 367 432
0 0 0 0 0 0 0 0 827 746 806 1129 1413 1350 1237 1250 1067 930 1007 1090 944 772 535 241 148 144 564 586 278 329 439 343
0 0 0 0 0 0 0 0 0 674 785 925 1309 1250 1221 1207 1134 1029 1004 1053 1051 838 620 357 153 116 378 664 606 511 483 343
0 0 0 0 0 0 0 0 0 0 376 907 1123 1349 1203 1057 1113 1195 1201 1172 1109 966 688 524 386 162 366 590 628 486 480 487
0 0 0 0 0 0 0 0 0 0 0 722 1103 1269 1135 999 1016 1370 1307 1248 1163 1082 870 731 722 487 484 624 652 568 616 564
0 0 0 0 0 0 0 0 0 0 0 0 135 1168 1179 1049 1177 1339 1391 1295 1269 1174 895 842 768 714 709 637 712 311 528 556
0 0 0 0 0 0 0 0 0 0 0 0 0 25 891 1015 1239 1415 1399 1403 1324 1230 1030 785 731 691 741 729 629 448 85 281
0 0 0 0 0 0 1 0 0 0 0 0 0 0 0 757 1039 1395 1425 1438 1384 1229 1098 797 775 638 633 576 487 482 326 169
0 0 0 0 0 0 0 0 0 3 0 0 0 0 0 152 573 1110 1286 1370 1319 1238 1090 938 840 685 650 631 487 470 479 418
0 0 0 0 1 0 0 1 0 0 0 0 0 0 0 25 386 981 1263 1251 1117 1211 1116 998 1034 753 711 488 129 321 304 455
0 0 0 0 0 1 2 2 2 0 0 0 0 0 0 0 30 460 839 1155 1040 1183 1064 1028 1122 954 688 576 157 19 0 6
0 0 1 0 2 2 2 2 3 2 5 0 0 0 0 0 1 44 593 921 1206 1095 1074 1004 980 877 805 759 462 150 73 47
0 1 1 1 1 2 2 2 1 2 0 0 0 0 3 14 0 0 304 183 782 909 1015 1102 908 705 693 656 678 588 422 235
1 0 2 1 2 3 2 2 1 2 3 2 4 13 0 0 0 0 0 0 201 675 693 682 592 668 462 417 383 400 353 326
0 2 1 1 3 3 2 2 3 1 3 3 2 3 3 6 0 0 0 0 0 33 426 477 513 493 478 366 380 313 219 207

GFSFLT2_con_mlcape_141.txt.gz
CAPE
1042 1114 1187 1321 1652 1611 1664 1518 1462 1319 1213 1260 1319 1274 1198 1175 1197 1266 1311 1405 1373 1006 629 564 517 456 408 491 557 671 651 663
0 0 0 420 1137 1423 1650 1693 1506 1444 1422 1422 1415 1395 1292 1253 1261 1276 1273 1353 1314 1028 608 491 462 412 379 398 457 566 611 656
0 0 0 0 3 747 1235 1264 1432 1651 1582 1575 1520 1444 1382 1316 1292 1246 1299 1316 1253 987 638 484 402 326 327 380 387 456 453 567
0 0 0 0 0 0 11 576 1010 1032 1479 1545 1633 1508 1419 1335 1252 1230 1323 1326 1212 988 706 499 389 239 258 349 245 321 421 530
0 0 0 0 0 0 0 0 16 747 1066 1204 1502 1533 1473 1450 1281 1282 1376 1352 1148 985 758 512 322 166 153 193 154 128 411 465
0 0 0 0 0 0 0 0 0 0 520 1118 1207 1210 1427 1400 1277 1185 1211 1265 950 903 658 447 253 129 76 36 81 61 322 454
0 0 0 0 0 0 0 0 0 0 0 576 1152 1199 1297 1346 1299 1154 1135 1147 914 723 635 405 133 74 70 15 9 13 104 300
0 0 0 0 0 0 0 0 0 0 0 0 86 1044 1160 1047 1087 1130 1062 980 889 642 523 419 128 43 37 143 109 15 119 287
0 0 0 0 0 0 0 0 0 0 0 0 0 18 969 1104 1065 1010 1030 962 867 754 539 414 187 29 22 90 460 462 289 290
0 0 0 0 0 0 0 0 0 0 0 0 0 0 0 957 1066 927 1025 953 871 800 628 589 377 111 6 4 346 383 339 285
0 0 0 0 0 0 0 0 0 0 0 0 0 0 0 0 298 907 882 1033 978 941 822 702 494 257 164 18 191 391 413 281
0 0 0 0 0 0 0 0 0 0 0 0 0 0 0 0 0 253 923 1049 1072 1036 1000 817 696 456 405 172 213 385 386 311
0 0 0 0 0 1 1 0 1 1 1 1 0 0 0 0 0 0 589 709 828 1054 1011 849 738 550 499 431 288 251 346 180
0 0 0 0 0 0 0 1 1 1 0 0 0 0 0 3 3 0 105 407 512 799 793 841 705 489 572 488 491 508 423 298
0 0 0 0 1 0 0 1 2 1 0 0 0 0 0 0 0 0 0 87 134 681 810 838 819 514 624 519 254 232 382 314
0 0 0 2 1 1 2 2 3 2 4 0 2 0 0 0 0 0 0 1 132 289 531 625 749 657 532 555 238 78 98 66
0 0 0 2 2 1 3 3 2 3 4 3 2 1 1 0 0 0 0 0 21 11 34 518 521 614 626 658 377 127 63 1
0 0 1 2 2 2 2 2 2 1 3 2 1 2 0 1 0 2 0 0 0 19 264 164 599 658 634 665 623 440 303 185
0 1 1 1 1 1 2 2 3 3 3 3 2 1 5 1 1 0 0 0 0 11 71 333 388 557 601 578 511 543 463 414
1 1 1 1 2 1 1 1 1 2 2 3 2 3 2 3 2 1 0 0 0 0 85 13 108 262 326 427 339 370 352 364

GFSFLT2_con_mlcape_144.txt.gz
CAPE
0 0 0 0 70 485 1072 1466 1462 1495 1280 1317 1449 1479 1359 1274 1283 1250 1203 1254 1241 924 653 592 531 457 462 520 586 668 697 555
0 0 0 0 0 0 0 484 936 1155 1439 1374 1361 1422 1339 1243 1223 1254 1232 1263 1228 1004 633 522 474 382 327 330 433 565 591 615
0 0 0 0 0 0 0 0 33 576 910 1168 1420 1438 1386 1305 1234 1199 1229 1206 1218 1044 705 482 437 373 280 282 334 435 468 543
0 0 0 0 0 0 0 0 0 0 181 643 973 1254 1354 1403 1278 1204 1255 1281 1254 1085 815 503 416 301 209 283 244 358 371 431
0 0 0 0 0 0 0 0 0 0 0 0 368 673 1014 1325 1331 1223 1218 1299 1268 1145 880 563 380 276 136 157 155 153 258 395
0 0 0 0 0 0 0 0 0 0 0 0 0 353 468 703 1157 1192 1113 1223 1116 1005 740 552 383 268 131 52 96 52 91 310
0 0 0 0 0 0 0 0 0 0 0 0 0 0 115 568 654 873 1042 1055 1079 870 662 477 378 203 115 39 30 23 20 239
0 0 0 0 0 0 0 0 0 0 0 0 0 0 0 7 586 785 717 918 900 762 639 442 422 215 74 43 29 17 10 73
0 0 0 0 0 0 0 0 0 0 0 0 0 0 0 0 0 509 858 922 702 622 596 491 336 232 97 40 39 35 7 9
0 0 0 0 0 0 0 0 0 0 0 0 0 0 0 0 0 0 256 865 836 614 460 424 295 249 159 39 23 130 169 68
0 0 0 0 0 0 0 0 0 0 0 0 0 0 0 0 3 0 0 61 726 667 425 363 302 218 203 86 22 20 304 317
0 0 0 0 0 0 0 0 0 0 0 1 2 3 1 0 0 0 0 0 133 725 472 293 365 310 233 200 81 18 42 272
0 0 0 0 0 0 0 0 0 1 2 2 0 1 0 0 0 0 0 0 0 118 575 344 353 375 322 250 179 84 15 146
0 0 0 0 1 1 0 0 1 0 0 0 1 0 0 0 1 3 5 2 0 0 0 510 371 242 430 375 337 309 75 124
0 0 0 0 0 0 2 2 1 2 0 2 3 0 0 1 3 0 0 0 0 0 11 154 150 291 445 346 265 194 306 160
0 0 1 1 0 0 2 2 3 2 5 4 1 3 4 1 0 1 1 0 0 1 2 0 19 408 358 293 139 81 145 151
0 0 0 0 0 1 1 2 2 4 3 2 3 2 4 2 0 0 2 3 3 0 45 1 0 13 369 341 222 51 7 45
0 0 0 0 0 1 2 1 2 2 2 3 1 1 2 1 6 3 1 1 3 0 17 90 12 114 358 341 252 248 190 123
2 0 1 0 1 1 4 2 1 1 3 3 4 3 3 3 4 5 3 1 5 3 0 47 25 53 214 277 325 278 349 285
3 1 1 0 0 1 7 4 2 2 1 2 3 3 3 3 3 3 2 2 12 19 0 0 7 1 19 52 106 267 227 258

GFSFLT2_con_mlcape_147.txt.gz
CAPE
0 0 0 0 0 0 0 0 295 888 1265 1273 1203 1276 1231 1457 1434 1360 1305 1403 1447 1039 736 660 625 618 562 541 591 679 1119 1185
0 0 0 0 0 0 0 0 0 31 564 938 1021 1069 1286 1271 1378 1379 1366 1325 1377 1117 732 597 572 491 392 373 489 571 999 1190
0 0 0 0 0 0 0 0 0 0 0 57 664 1057 1082 1102 1502 1393 1327 1330 1326 1228 876 558 486 419 292 221 296 701 952 1126
0 0 0 0 0 0 0 0 0 0 0 0 8 496 768 1100 1159 945 1193 1164 1257 1263 1040 682 428 702 563 221 430 595 856 1091
0 0 0 0 0 0 0 0 0 0 0 0 0 0 711 565 725 1211 1363 1348 1474 1423 1331 1098 817 746 636 506 492 613 785 947
0 0 0 0 0 0 0 0 0 0 0 0 0 0 1 309 492 621 818 1174 1244 1283 1291 1198 1030 827 703 503 482 458 506 805
0 0 0 0 0 0 0 0 0 0 0 0 0 0 0 0 4 473 596 751 951 799 844 954 918 792 686 503 356 391 390 420
0 0 0 0 0 0 0 0 0 0 0 0 0 0 0 0 0 0 382 764 643 603 651 772 698 798 698 541 385 275 295 255
0 0 0 0 0 0 0 0 0 0 0 0 0 0 0 0 0 0 0 279 532 614 598 539 497 604 677 569 388 286 184 178
0 0 0 0 0 0 0 0 0 0 0 0 0 1 1 0 0 0 2 0 35 634 645 414 348 401 406 587 372 256 229 160
0 0 0 0 0 0 0 0 0 0 0 0 0 0 3 1 3 3 3 1 0 14 645 375 298 276 328 505 459 262 227 206
0 0 0 0 0 0 0 0 0 0 0 0 3 2 2 0 3 2 0 0 0 0 20 555 368 201 160 286 466 331 205 279
0 0 0 0 0 0 0 0 0 1 0 1 1 2 2 0 2 6 3 1 1 0 0 50 426 307 169 165 270 362 244 176
0 0 0 0 0 1 1 3 4 4 4 4 2 1 2 2 1 6 5 7 2 7 0 0 3 78 223 185 134 237 151 206
0 0 1 1 1 2 2 3 2 2 1 1 2 1 2 7 2 5 4 13 7 1 4 7 3 0 163 84 196 183 277 271
0 1 1 1 1 0 1 2 2 4 3 3 2 4 6 10 8 5 3 0 2 7 0 0 16 29 168 314 120 156 175 241
0 0 0 1 0 2 1 3 3 2 2 4 3 2 3 3 6 4 7 10 6 1 6 2 7 219 14 0 0 58 67 175
0 0 0 1 0 1 5 3 2 1 1 2 2 4 4 4 4 2 3 3 2 3 6 7 1 282 212 5 5 17 145 130
0 1 0 0 1 1 5 3 3 2 2 1 2 2 3 3 3 2 3 3 3 4 7 6 0 282 184 223 188 87 155 214
2 3 2 1 1 1 5 4 3 4 3 1 1 2 2 2 3 3 3 3 4 4 4 17 18 138 335 199 171 84 162 188

GFSFLT2_con_mlcape_150.txt.gz
CAPE
0 0 0 0 0 0 0 0 0 9 211 845 1014 1124 1223 1011 955 1286 1313 1390 1501 1594 1386 1027 742 602 641 654 641 686 902 824
0 0 0 0 0 0 0 0 0 0 0 0 190 926 1020 1126 1120 1027 1222 1357 1414 1527 1218 849 741 620 561 495 461 513 753 738
0 0 0 0 0 0 0 0 0 0 0 0 16 1248 1584 1508 1302 1037 1071 1066 1297 1352 1240 869 657 575 469 366 343 468 406 647
0 0 0 0 0 0 0 0 0 0 0 0 0 0 311 1118 1036 1053 1008 927 797 1199 1246 1052 646 754 650 318 411 284 475 573
0 0 0 0 0 0 0 0 0 0 0 0 0 0 0 143 1299 1324 1499 1212 1203 1180 1301 1284 932 744 598 678 477 417 427 475
0 0 0 0 0 0 0 0 0 0 0 0 0 0 0 0 0 693 1215 1408 1373 1376 1203 1316 1072 937 836 738 681 480 360 364
0 0 0 0 0 0 0 0 0 0 0 0 0 0 0 0 0 0 0 1207 1274 990 1113 1259 1241 1048 974 880 818 670 386 357
0 0 0 0 0 0 0 0 0 0 0 0 0 0 0 0 0 0 0 0 957 1246 934 975 919 1153 840 938 810 695 588 456
0 0 0 0 0 0 0 0 0 0 0 0 0 0 0 0 0 0 0 0 0 71 1050 960 795 947 1044 871 854 806 597 478
0 0 0 0 0 0 0 0 0 0 0 0 0 0 0 0 0 0 0 0 0 0 2 887 1027 755 792 933 715 762 720 524
0 0 0 0 0 0 0 0 0 0 0 0 0 0 0 2 1 0 0 0 0 0 0 1 645 898 583 765 917 712 688 631
0 0 0 0 0 0 0 0 0 0 0 0 0 0 2 1 0 1 7 0 0 0 0 0 0 644 682 634 959 899 744 656
0 0 0 0 0 0 0 0 0 0 0 0 1 2 0 0 1 2 2 14 1 0 0 0 0 0 545 546 555 956 763 657
0 0 0 0 0 0 0 0 0 0 0 0 1 5 9 3 4 0 2 4 1 10 9 6 0 0 104 439 430 410 462 623
0 0 0 0 0 0 0 0 0 0 0 0 1 2 5 7 5 8 9 7 2 4 13 9 8 1 4 133 245 14 213 143
0 0 0 0 0 0 0 0 0 0 0 1 1 2 3 6 3 3 4 4 11 6 6 10 16 7 8 18 45 248 83 149
0 0 0 0 0 0 0 0 0 1 1 1 1 1 4 5 4 3 2 3 2 1 2 6 22 18 5 27 135 147 221 50
0 0 0 0 0 0 1 1 1 1 2 2 3 3 2 4 3 2 3 3 4 2 3 2 2 28 12 21 179 309 163 54
0 0 0 0 0 0 0 0 1 2 4 2 2 1 2 3 3 3 4 4 4 4 3 3 1 21 22 10 236 335 164 59
0 0 0 0 0 0 1 1 1 1 2 4 3 2 3 0 1 3 5 4 4 4 5 1 6 4 16 13 136 444 390 318

GFSFLT2_con_mlcape_156.txt.gz
CAPE
0 0 0 0 0 0 0 0 0 0 0 0 0 3 426 892 1005 1077 1116 1118 1112 1169 1217 1406 1644 1569 1034 704 707 788 753 685
0 0 0 0 0 0 0 0 0 0 0 0 0 0 0 690 1125 1092 938 991 1014 1106 1206 1271 1446 1475 1152 754 636 672 676 687
0 0 0 0 0 0 0 0 0 0 0 0 0 0 0 0 0 62 713 1215 1339 1236 1170 1178 1161 1219 1033 783 656 659 695 739
0 0 0 0 0 0 0 0 0 0 0 0 0 0 0 0 0 0 172 1209 1027 1089 1106 1065 1057 1210 1120 857 671 607 671 714
0 0 0 0 0 0 0 0 0 0 0 0 0 0 0 0 0 0 0 42 601 1343 1215 961 1079 1213 1063 848 852 752 718 674
0 0 0 0 0 0 0 0 0 0 0 0 0 0 0 0 0 0 0 0 0 100 1061 1144 1110 1175 1238 1030 952 941 918 709
0 0 0 0 0 0 0 0 0 0 0 0 0 0 0 0 0 0 0 0 0 0 40 498 975 1034 911 1000 1167 1018 1048 685
0 0 0 0 0 0 0 0 0 0 0 0 0 0 0 0 0 0 0 0 0 0 0 0 50 167 957 1012 941 880 902 831
0 0 0 0 0 0 0 0 0 0 0 0 0 0 0 0 0 0 0 0 0 0 0 0 0 0 49 994 1020 897 954 1064
0 0 0 0 0 0 0 0 0 0 0 0 0 0 0 0 0 0 0 0 0 0 0 0 0 0 1 56 743 899 749 876
0 0 0 0 0 0 0 0 0 0 0 0 0 0 1 0 0 0 3 2 1 0 0 0 0 0 0 7 71 461 796 719
0 0 0 0 0 0 0 0 0 0 0 0 0 0 0 0 0 2 12 9 3 1 0 0 0 0 0 0 4 15 327 640
0 0 0 0 0 0 0 0 0 0 0 0 0 0 0 0 2 0 2 3 3 1 2 2 0 0 0 0 0 0 0 208
0 0 0 0 0 0 0 0 0 0 0 0 0 0 1 1 0 0 1 1 1 0 4 4 4 0 2 1 1 0 0 2
0 0 0 0 0 0 0 0 0 0 0 0 0 1 0 2 0 1 1 2 2 2 1 1 1 4 0 5 19 5 4 100
0 0 0 0 0 0 0 0 0 0 0 0 0 2 2 1 5 0 1 1 2 5 6 3 9 2 1 2 0 6 2 7
0 0 0 0 0 0 0 0 0 0 1 0 0 1 2 3 3 0 1 2 3 2 2 3 3 6 5 0 0 0 1 3
0 0 0 0 0 0 0 0 0 0 0 0 1 2 2 3 5 0 1 1 2 2 3 2 1 3 2 10 4 1 0 14
0 0 0 0 0 0 0 0 0 0 0 1 0 0 1 1 1 1 1 1 1 2 2 2 2 3 3 2 3 14 1 0
0 0 0 0 0 0 0 1 1 0 0 1 0 1 4 2 2 1 2 1 1 1 1 2 2 2 4 4 4 0 1 12